Regional Weather Roundup
Issued by NWS

Home | Current Version | Previous Version | Graphics & Text | Print | Product List | Glossary On
Versions: 1 2 3 4 5 6 7 8 9 10 11 12 13 14 15 16 17 18 19 20 21 22 23 24 25 26 27 28 29 30 31 32 33 34 35 36 37 38 39 40 41 42 43 44 45 46 47 48 49 50
000
ASUS43 KOAX 190002
RWRNE

WEATHER ROUNDUP FOR NEBRASKA
NATIONAL WEATHER SERVICE OMAHA NE
700 PM CDT FRI APR 18 2014

NOTES: SATELLITE DATA IS BEING USED TO AUGMENT CLOUD COVER ABOVE
       12000 FEET.
       "FAIR" INDICATES FEW OR NO CLOUDS BELOW 12,000 FEET WITH NO
       SIGNIFICANT WEATHER AND/OR OBSTRUCTIONS TO VISIBILITY.

  * THESE STATIONS DO NOT REPORT WEATHER SUCH AS RAIN...SNOW OR FOG.

NEZ001>004-019>022-054>056-190100-
NEBRASKA PANHANDLE

CITY           SKY/WX    TMP DP  RH WIND       PRES   REMARKS
SCOTTSBLUFF    PTSUNNY   80  33  18 S18G25    29.75F
6HR MIN TEMP:  74; 6HR MAX TEMP:  84;

ALLIANCE       PTSUNNY   76  31  19 S23G32    29.76F
6HR MIN TEMP:  70; 6HR MAX TEMP:  80;

CHADRON        PTSUNNY   73  43  33 S12       29.65F
6HR MIN TEMP:  73; 6HR MAX TEMP:  82;

KIMBALL        PTSUNNY   72  22  15 S15G21    29.83S
SIDNEY         MOSUNNY   76  29  17 S17       29.84F
6HR MIN TEMP:  69; 6HR MAX TEMP:  81;

$$

NEZ057>060-069>072-079>082-190100-
SOUTHWEST NEBRASKA

CITY           SKY/WX    TMP DP  RH WIND       PRES   REMARKS
NORTH PLATTE   MOSUNNY   70  42  36 S17G29    29.87S
6HR MIN TEMP:  65; 6HR MAX TEMP:  73;

IMPERIAL       SUNNY     76  37  24 S25G33    29.85S
6HR MIN TEMP:  67; 6HR MAX TEMP:  78;

LEXINGTON      MOSUNNY   70  42  35 S24G30    29.92F
MCCOOK         MOSUNNY   70  44  39 S24G35    29.91F
6HR MIN TEMP:  66; 6HR MAX TEMP:  73;

OGALLALA       PTSUNNY   76  35  22 S16G26    29.84S
$$

NEZ005>010-023>029-035>040-094-190100-
NORTH CENTRAL NEBRASKA

CITY           SKY/WX    TMP DP  RH WIND       PRES   REMARKS
VALENTINE      CLOUDY    72  38  29 S29G41    29.76F
6HR MIN TEMP:  70; 6HR MAX TEMP:  76;

AINSWORTH      CLOUDY    70  41  35 S22G39    29.81F
BROKEN BOW     PTSUNNY   69  42  37 S28G37    29.91F
6HR MIN TEMP:  63; 6HR MAX TEMP:  70;

O`NEILL        CLOUDY    68  37  32 S21G35    29.89F
ORD            CLOUDY    70  41  34 S20G28    29.92F
6HR MIN TEMP:  64; 6HR MAX TEMP:  70;

THEDFORD       MOSUNNY   72  38  29 S26G36    29.85S
$$

NEZ041-046>049-061>064-073>077-083>087-190100-
SOUTH CENTRAL NEBRASKA

CITY           SKY/WX    TMP DP  RH WIND       PRES   REMARKS
GRAND ISLAND   CLOUDY    68  41  37 S23G30    29.99F
6HR MIN TEMP:  63; 6HR MAX TEMP:  70;

AURORA         CLOUDY    68  41  37 S20G31    30.00F
HASTINGS       CLOUDY    68  40  35 S20G31    29.98F
6HR MIN TEMP:  62; 6HR MAX TEMP:  70;

HEBRON         PTSUNNY   69  40  34 S15G23    30.04F
HOLDREGE       PTSUNNY   69  39  33 S20G29    29.96S
KEARNEY *      CLOUDY    70  43  37 S29       29.97S
YORK           CLOUDY    66  41  39 S21G29    30.02F
$$

NEZ011>018-030>034-042>045-190100-
NORTHEAST NEBRASKA

CITY           SKY/WX    TMP DP  RH WIND       PRES   REMARKS
NORFOLK        CLOUDY    66  40  38 S22G32    29.98F
6HR MIN TEMP:  63; 6HR MAX TEMP:  70;

ALBION         CLOUDY    66  40  37 S22G28    29.98S
BLAIR          SUNNY     66  37  33 SE17G30   30.06F
COLUMBUS *     PTSUNNY   66  39  37 S21G28    30.02F
FREMONT        MOSUNNY   67  36  31 S14G26    30.05F
TEKAMAH        MOSUNNY   68  37  32 S21       30.05F
6HR MIN TEMP:  62; 6HR MAX TEMP:  72;

$$

NEZ050>053-065>068-078-088>093-190100-
SOUTHEAST NEBRASKA

CITY           SKY/WX    TMP DP  RH WIND       PRES   REMARKS
LINCOLN        MOSUNNY   67  38  34 S17G26    30.06F
6HR MIN TEMP:  65; 6HR MAX TEMP:  72;

OMAHA EPPLEY   PTSUNNY   68  38  33 S23G30    30.08F
6HR MIN TEMP:  60; 6HR MAX TEMP:  69;

BEATRICE       MOSUNNY   67  39  35 S15G24    30.07F
NEBRASKA CITY  SUNNY     66  38  36 S15G23    30.11S
$$

NEZ044-045-051>053-067-190100-
OMAHA AREA

CITY           SKY/WX    TMP DP  RH WIND       PRES   REMARKS
OMAHA EPPLEY   PTSUNNY   68  38  33 S23G30    30.08F
6HR MIN TEMP:  60; 6HR MAX TEMP:  69;

BLAIR          SUNNY     66  37  33 SE17G30   30.06F
FREMONT        MOSUNNY   67  36  31 S14G26    30.05F
OFFUTT AFB     SUNNY     68  40  36 S16G23    30.08F
WAHOO          FAIR      66  34  30 S22G29    30.05F
$$



USA.gov is the U.S. government's official web portal to all federal, state and local government web resources and services.